Location: Prairie View Elementary School
(39.8322°N, 99.5698°W)
Time: 15:06:37
(UTC+00:00)

Cosmos 1943 Rocket - Pass Details

Date: 08 December 2019
Orbit: 812 x 844 km, 71.0° (Epoch: 19 January)

Event Time Altitude Azimuth Distance (km) Brightness Sun altitude
Rises 01:40:50 0° 345° (NNW) 3,403 5.4 -27.6°
Reaches altitude 10° 01:43:34 10° 355° (N) 2,461 4.6 -28.1°
Enters shadow 01:43:53 11° 357° (N) 2,362 4.5 -28.1°
